SCP
0 0 0 0 0 0 0 0 0 0 0 -0 0 -0 -0 0 0 0 0 -0 -0 -0 -0 -0 -0 -0 -0 -0 -0 -0 -0 -0 -0 -0 -0 -0 -0 -0 -0 -0 -0 -0 -0 -0 -0 -0 -0 -0 -0
0 0 0 0 0 0 0 0 0 0 0 -0 -0 -0 0 0 0 0 0 -0 -0 0 0 0 -0 -0 -0 -0 -0 0 -0 -0 -0 -0 -0 -0 -0 -0 -0 -0 -0 -0 -0 -0 -0 -0 -0 -0 -0
0 0 0 0 0 0 0 0 0 0 0 0 -0 0 -0 -0 -0 0 0 -0 0 0 0 0 -0 -0 -0 0 -0 -0 -0 -0 -0 -0 -0 -0 -0 -0 -0 -0 -0 -0 -0 -0 -0 -0 -0 -0 -0
0 0 0 0 0 0 0 0 0 0 0 0 0 0 -0 0 -0 0 0 0 -0 -0 -0 0 0 -0 0 0 0 -0 0 -0 -0 -0 -0 -0 -0 -0 -0 -0 -0 -0 -0 -0 -0 -0 -0 -0 -0
0 0 0 0 0 0 0 -0 0 0 0 0 0 -0 -0 -0 0 0 0 -0 -0 -0 -0 0 -0 -0 -0 0 0 -0 -0 -0 -0 -0 -0 -0 -0 -0 -0 -0 -0 -0 -0 -0 -0 -0 -0 -0 -0
0 0 0 0 0 0 0 0 0 0 0 0 0 0 0 -0 -0 0 0 0 -0 0 0 0 -0 -0 -0 0 -0 -0 -0 -0 0 -0 -0 -0 -0 -0 -0 -0 -0 -0 -0 -0 -0 -0 -0 -0 -0
0 0 0 0 0 0 0 0 0 0 0 0 0 0 0 0 0 0 0 0 0 0 0 0 0 0 0 0 -0 -0 -0 -0 -0 0 -0 -0 -0 -0 -0 -0 -0 -0 -0 -0 -0 -0 -0 -0 -0
0 0 0 0 0 0 0 0 0 0 0 0 0 -0 -0 -0 0 0 0 0 0 0 0 0 0 0 0 0 0 -0 0 0 0 -0 -0 -0 -0 -0 -0 -0 -0 -0 -0 -0 -0 -0 -0 -0 -0
0 0 0 0 0 0 0 0 0 0 0 0 0 0 0 0 0 0 0 0 0 0 0 0 0 0 0 0 0 0 0 0 -0 -0 -0 -0 -0 -0 -0 -0 -0 -0 -0 -0 -0 -0 -0 -0 -0
0 0 0 0 0 0 0 0 0 0 0 0 0 0 0 -0 -0 0 0 0 0 0 0 0 0 0 0 0 0 0 0 0 0 -0 -0 -0 -0 -0 -0 -0 -0 -0 -0 0 0 0 -0 0 0
0 0 0 0 0 0 0 0 0 0 0 0 0 0 0 0 0 0 0 0 0 0 0 0 0 0 0 0 0 0 0 0 0 0 -0 -0 0 0 0 0 0 0 0 0 0 0 0 0 0
0 0 0 0 0 0 0 0 0 0 0 0 0 0 0 0 0 0 0 0 0 0 0 0 -0 0 0 0 0 0 0 0 0 -0 -0 -0 -0 0 0 0 0 0 0 0 0 0 0 0 0
0 0 0 0 0 0 0 0 0 0 0 0 0 0 0 0 0 0 0 0 0 0 0 0 0 -0 -0 -0 -0 -0 -0 -0 -0 -0 -0 -0 -0 0 0 0 0 0 0 0 0 0 0 0 0
0 0 0 0 0 0 0 0 0 0 0 0 0 0 0 0 0 0 0 0 0 0 0 0 0 0 -0 -0 -0 -0 -0 -0 -0 -0 0 -0 0 0 0 0 0 0 0 0 0 0 0 0 0
0 0 0 0 0 0 0 0 0 0 0 0 0 0 0 0 0 0 0 0 0 0 0 0 0 0 -0 -0 0 0 0 0 0 0 0 0 0 0 0 0 0 0 0 0 0 0 0 0 0
0 0 0 0 0 0 0 0 0 0 0 0 0 0 0 0 0 0 0 0 0 0 0 0 0 0 0 0 0 0 0 0 0 0 0 0 0 0 0 0 0 0 0 0 0 0 0 0 0
0 0 0 0 0 0 0 0 0 0 0 0 0 0 0 0 0 0 0 0 0 0 0 0 0 0 0 0 0 0 0 0 0 0 0 0 0 0 0 0 0 0 0 0 0 0 0 0 0
0 0 0 0 0 0 0 0 0 0 0 0 0 0 0 0 0 0 0 0 0 0 0 0 0 0 0 0 0 0 0 0 0 0 0 0 0 0 0 0 0 0 0 0 0 0 0 0 0
0 0 0 0 0 0 0 0 0 0 0 0 0 0 0 0 0 0 0 0 0 0 0 0 0 0 0 0 0 0 0 0 0 0 0 0 0 0 0 0 0 0 0 0 0 0 0 0 0
0 0 0 0 0 0 0 0 0 0 0 0 0 0 0 0 0 0 0 0 0 0 0 0 0 0 0 0 0 0 0 0 0 0 0 0 0 0 0 0 0 0 0 0 0 0 0 0 0
0 0 0 0 0 0 0 0 0 0 0 0 0 0 0 0 0 0 0 0 0 0 0 0 0 0 0 0 0 0 0 0 0 0 0 0 0 0 0 0 0 0 0 0 0 0 0 0 0
0 0 0 0 0 0 0 0 0 0 0 0 0 0 0 0 0 0 0 0 0 0 0 0 0 0 0 0 0 0 0 0 0 0 0 0 0 0 0 0 0 0 0 0 0 0 0 0 0
0 0 0 0 0 0 0 0 0 0 0 0 0 0 0 0 0 0 0 0 0 0 0 0 0 0 0 0 0 0 0 0 0 0 0 0 0 0 0 0 0 0 0 0 0 0 0 0 0
0 0 0 0 0 0 0 0 0 0 0 0 0 0 0 0 0 0 0 0 0 0 0 0 0 0 0 0 0 0 0 0 0 0 0 0 0 0 0 0 0 0 0 0 0 0 0 0 0
0 0 0 0 0 0 0 0 0 0 0 0 0 0 0 0 0 0 0 0 0 0 0 0 0 0 0 0 0 0 0 0 0 0 0 0 0 0 0 0 0 0 0 0 0 0 0 0 0
0 0 0 0 0 0 0 0 0 0 0 0 0 0 0 0 0 0 0 0 0 0 0 0 0 0 0 0 0 0 0 0 0 0 0 0 0 0 0 0 0 0 0 0 0 0 0 0 0
0 0 0 0 0 0 0 0 0 0 0 0 0 0 0 0 0 0 0 0 0 0 0 0 0 0 0 0 0 0 0 0 0 0 0 0 0 0 0 0 0 0 0 0 0 0 0 0 0
0 0 0 0 0 0 0 0 0 0 0 0 0 0 0 0 0 0 0 0 0 0 0 0 0 0 0 0 0 0 0 0 0 0 0 0 0 0 0 0 0 0 0 0 0 0 0 0 0
0 0 0 0 0 0 0 0 0 0 0 0 0 0 0 0 0 0 0 0 0 0 0 0 0 0 0 0 0 0 0 0 0 0 0 0 0 0 0 0 0 0 0 0 0 0 0 0 0
0 0 0 0 0 0 0 0 0 0 -0 -0 0 0 0 0 0 0 0 0 0 0 0 0 0 0 0 0 0 0 0 0 0 0 0 0 0 0 0 0 0 0 0 0 0 0 0 0 0
Wind_Speed_500mb
6 7 13 5 8 9 0 4 3 1 4 9 21 21 17 11 4 5 33 24 34 30 28 24 20 21 20 19 19 18 19 20 23 23 25 23 19 17 20 21 25 27 29 26 25 24 24 24 21
6 7 7 5 8 5 8 6 10 5 23 33 28 22 13 5 5 25 41 28 33 31 31 25 23 22 20 22 20 19 20 24 29 26 28 31 29 30 31 31 34 35 33 30 28 26 29 28 24
5 9 3 8 6 5 8 6 10 14 30 3 12 18 8 8 16 44 25 32 34 29 27 25 24 24 23 22 20 20 24 26 30 23 23 29 31 30 32 32 32 32 32 34 29 27 29 27 21
1 3 9 8 3 6 8 12 14 19 11 7 32 15 12 5 33 24 30 34 37 31 25 23 22 25 25 22 21 20 21 24 27 25 23 25 25 23 26 26 25 27 29 26 24 22 18 17 22
6 3 7 4 5 7 5 18 19 8 9 18 6 9 10 28 13 26 31 37 34 33 26 25 24 28 26 22 18 19 19 20 19 18 19 23 22 20 23 24 24 23 21 19 18 18 14 14 17
6 4 7 4 5 7 2 22 11 7 13 18 19 17 13 24 19 33 35 36 32 32 29 26 24 26 26 23 18 18 17 18 18 17 17 19 20 19 21 24 23 21 19 19 20 20 17 15 15
6 6 8 7 4 3 5 14 7 14 17 8 35 9 15 31 27 38 39 36 35 32 31 27 24 25 24 22 19 17 18 19 19 17 15 15 19 21 20 23 20 19 20 20 18 17 12 11 12
8 7 7 6 6 6 8 19 11 21 2 34 22 13 14 45 41 44 40 39 34 32 31 29 25 25 24 21 19 16 17 17 17 15 15 15 15 17 20 20 18 17 17 17 18 16 11 4 5
12 7 3 10 8 7 14 8 13 9 25 13 19 13 13 52 53 50 46 45 39 37 35 31 28 26 25 23 20 18 16 16 14 13 14 13 12 12 13 15 15 14 13 14 12 10 7 2 5
12 5 8 5 7 6 13 13 23 13 18 9 20 20 35 59 64 60 58 55 48 44 42 38 34 30 27 25 22 19 17 15 12 12 11 10 9 8 8 9 10 10 7 8 7 6 3 2 3
15 8 8 18 24 19 8 15 21 19 7 22 35 37 57 66 67 63 58 53 48 43 44 41 38 34 30 28 25 23 20 17 14 12 10 8 6 5 5 4 5 5 4 4 4 3 4 5 5
11 14 10 37 16 12 9 19 14 33 15 30 34 38 62 71 72 69 62 55 49 47 44 42 39 37 34 31 27 25 22 19 15 12 9 7 4 3 2 2 3 3 3 3 2 3 6 6 6
11 9 18 16 32 24 12 18 13 36 13 18 40 54 63 69 67 64 56 51 48 49 45 44 43 40 37 35 32 30 26 22 19 16 13 10 7 5 3 1 1 0 1 2 2 5 7 6 5
19 13 10 25 26 19 10 9 14 24 27 26 46 57 63 65 68 69 64 58 56 49 47 43 44 41 40 37 34 32 29 26 25 22 18 16 14 11 8 6 5 4 5 5 5 6 7 6 6
6 4 13 12 8 11 8 8 13 20 31 41 53 59 60 62 69 70 62 62 58 52 48 46 43 40 38 34 36 35 33 32 29 27 25 23 20 17 15 13 11 10 10 10 10 10 10 9 8
8 5 16 4 11 12 17 15 22 27 38 47 58 61 60 61 59 65 64 60 58 54 54 48 46 43 41 39 36 34 35 35 31 28 29 28 26 24 22 20 17 17 16 16 16 16 16 15 16
8 11 23 12 14 4 8 11 17 35 45 49 61 63 62 60 59 60 63 62 59 55 54 54 50 48 43 41 42 43 39 35 35 30 29 29 28 29 27 25 22 22 21 21 22 23 24 24 25
12 21 9 30 11 8 8 15 11 34 48 57 63 65 65 65 61 55 57 58 60 55 54 53 49 48 50 48 46 51 43 47 42 40 38 34 31 29 28 29 26 26 26 24 25 26 29 32 33
14 18 22 19 21 11 16 15 28 17 37 36 55 65 66 67 58 54 53 55 55 56 57 58 64 56 59 60 57 57 58 51 50 45 41 39 37 35 32 30 26 25 28 26 28 30 31 33 37
9 15 34 5 6 13 8 24 20 13 23 61 69 66 68 68 66 57 61 62 63 60 59 63 61 61 62 66 57 55 50 46 49 51 48 47 44 42 41 38 34 31 31 31 32 34 38 40 41
12 13 7 10 6 3 5 13 14 13 35 37 55 62 66 66 65 57 65 66 63 71 71 66 61 57 58 60 56 53 47 46 40 46 49 49 49 45 45 42 39 38 39 38 38 38 46 40 42
23 7 8 8 6 7 10 16 11 14 18 23 60 59 69 68 63 52 53 64 65 65 66 72 68 62 56 58 56 53 51 47 40 38 36 42 42 43 42 42 40 41 41 45 42 39 42 41 50
11 15 11 2 6 4 3 2 20 3 21 25 44 75 74 74 60 55 59 57 65 63 63 66 69 70 65 61 62 57 57 46 34 31 23 24 29 35 38 41 40 36 37 37 35 35 39 38 41
16 10 11 7 5 8 17 17 11 15 15 13 50 76 97 92 72 64 62 61 61 64 63 62 66 68 69 69 69 67 65 52 42 37 34 30 29 30 35 37 36 37 33 29 28 27 30 30 32
15 20 6 6 7 22 8 10 28 9 15 11 17 53 85 77 69 64 64 64 65 68 65 62 63 64 65 66 67 66 62 55 45 40 39 32 32 31 33 32 32 31 28 28 28 28 28 24 24
23 18 10 17 12 7 4 14 18 15 13 29 28 30 46 62 58 59 60 58 59 60 61 61 63 64 65 66 67 63 57 51 52 50 41 36 35 30 29 24 26 28 29 28 27 21 26 29 29
12 18 12 12 7 6 9 13 19 12 16 11 23 31 49 55 57 55 54 54 54 56 57 58 59 60 61 62 65 64 57 52 54 55 48 38 35 34 32 31 29 22 21 25 26 27 27 27 30
14 19 9 2 11 9 10 9 11 10 20 16 18 49 59 58 57 54 49 48 49 50 50 47 44 42 43 44 45 46 47 48 53 53 46 40 35 31 25 26 28 28 25 17 15 16 16 18 20
5 8 2 6 8 12 6 16 17 25 31 30 37 54 70 65 60 55 50 45 43 42 40 40 40 39 40 40 39 40 44 48 54 53 44 35 31 26 24 22 19 16 15 12 8 9 11 15 19
3 15 25 11 16 3 6 13 4 15 14 23 33 52 58 59 53 49 47 48 47 43 41 40 41 41 40 39 39 40 43 48 52 49 42 33 32 29 24 21 18 14 9 8 7 10 14 18 23
Wind_Direction_500mb
264 306 330 329 48 61 284 203 105 169 47 73 100 115 125 70 129 190 141 148 157 156 150 149 140 136 123 105 95 92 102 114 103 95 107 125 141 148 145 120 116 101 100 103 106 100 90 84 79
259 328 341 63 82 48 285 263 156 219 135 111 83 89 62 83 101 139 145 141 160 154 149 146 138 134 121 107 96 99 108 107 105 95 97 102 106 107 102 99 99 99 98 101 101 99 94 86 78
260 355 26 88 103 166 217 232 165 132 157 110 100 72 79 114 133 140 149 147 161 155 152 150 147 140 130 122 104 93 98 100 103 113 96 101 108 102 102 98 98 101 99 103 106 104 96 92 79
314 3 57 83 213 254 208 193 177 141 132 94 119 71 82 82 137 141 145 155 161 159 156 153 149 145 138 127 104 100 101 110 117 116 99 96 100 99 98 104 101 100 105 104 112 111 105 100 85
35 32 61 75 289 268 247 185 170 125 110 134 128 136 95 147 151 152 150 159 168 163 156 158 157 149 142 138 120 108 105 111 116 110 93 87 91 96 93 100 101 99 100 109 114 123 120 106 89
16 58 71 209 253 298 155 172 174 141 148 138 112 116 130 171 170 156 154 160 171 166 158 158 155 154 152 147 134 123 115 110 113 109 93 86 89 92 94 98 96 96 100 107 111 126 123 102 76
107 76 193 191 227 74 172 206 205 166 145 156 139 104 146 176 185 161 159 159 167 170 160 155 159 162 163 159 151 135 116 108 102 98 95 87 77 80 87 94 88 89 89 91 97 115 108 91 65
53 80 134 205 194 211 186 165 208 166 180 149 157 163 177 177 176 165 165 170 170 174 169 163 165 168 172 163 157 141 124 112 107 106 101 91 85 83 83 79 80 87 89 97 107 117 125 96 50
87 72 265 210 158 236 169 147 172 170 153 183 186 198 187 167 171 171 173 178 182 183 180 176 173 176 175 173 165 156 143 132 122 115 109 105 98 93 92 84 84 99 101 106 109 113 119 99 335
107 101 223 234 224 251 182 176 168 162 156 193 180 181 170 170 175 180 182 184 188 188 187 183 181 181 181 180 176 168 162 154 143 126 114 109 105 100 92 84 77 82 99 111 114 111 97 19 345
144 182 32 300 269 264 222 207 181 157 229 202 185 171 175 177 183 189 191 193 192 190 193 191 189 187 187 184 183 182 181 177 168 155 142 131 115 97 87 92 80 71 92 100 96 83 27 355 345
126 220 187 270 294 285 212 203 201 185 206 217 198 194 180 185 189 195 195 197 196 196 197 199 198 196 192 192 193 193 194 194 190 187 179 169 156 134 99 79 82 78 55 45 42 8 354 347 333
148 208 228 288 293 279 242 205 198 211 223 203 191 181 186 192 197 200 202 201 201 204 201 205 206 207 204 202 201 202 203 205 209 210 209 208 208 213 210 218 250 205 316 347 345 330 332 336 333
169 145 259 291 298 284 237 224 186 229 217 190 187 189 192 195 203 203 204 206 208 207 206 210 214 213 214 214 212 211 213 213 220 222 222 225 230 233 239 251 266 277 282 292 297 298 313 311 316
143 46 334 245 282 256 187 282 221 223 204 191 190 196 198 203 205 210 208 209 212 213 213 216 218 217 218 218 221 219 219 221 226 232 234 234 235 240 245 250 259 266 268 270 277 281 297 294 299
98 47 239 350 194 232 161 249 248 214 198 192 194 202 206 210 212 214 215 215 217 220 221 223 227 227 230 231 235 233 227 225 231 229 235 240 243 243 244 249 253 257 265 269 272 273 276 280 282
189 220 227 292 214 244 177 231 248 211 203 199 199 206 212 218 218 217 218 220 220 224 224 226 230 234 235 236 244 245 248 237 234 235 240 246 248 252 254 252 252 256 260 267 273 274 274 277 280
180 215 221 211 220 206 208 249 273 210 206 211 207 210 214 220 221 217 218 219 222 224 228 230 230 233 236 238 243 244 244 234 236 240 240 243 248 252 261 252 253 258 261 266 273 281 281 283 288
150 190 217 211 208 179 220 231 245 234 218 224 217 214 216 222 228 224 223 222 219 222 225 227 231 232 235 233 236 239 236 236 237 238 242 245 249 252 256 259 269 277 279 282 280 280 284 288 291
212 191 202 251 147 169 233 247 253 206 221 217 217 218 219 225 231 227 229 226 226 223 225 229 232 232 234 235 240 241 244 252 242 241 245 249 250 253 256 258 262 267 272 273 279 284 287 292 290
229 208 161 192 124 133 131 277 251 236 242 237 232 231 229 229 232 234 232 228 227 229 228 229 230 231 230 234 238 239 241 247 242 240 239 244 250 252 254 260 263 266 268 272 279 283 282 278 287
232 173 158 113 121 219 171 254 246 233 235 224 235 229 234 234 234 228 229 223 225 229 226 227 230 231 230 233 237 238 240 243 250 247 245 246 246 251 255 258 261 265 268 270 275 275 278 285 285
208 171 157 110 234 197 206 233 252 197 236 234 235 233 232 228 229 225 226 223 225 226 226 223 225 229 229 232 236 239 240 244 246 242 253 252 249 245 249 252 255 261 268 270 275 276 278 284 284
146 81 70 94 128 267 213 191 247 206 208 223 231 233 232 231 229 224 223 222 219 221 220 223 224 228 231 232 235 236 240 239 235 245 249 254 257 251 245 246 248 252 255 263 266 275 275 275 278
155 141 183 201 165 234 170 184 237 225 234 230 252 244 235 226 220 217 217 215 213 216 216 221 227 230 232 234 236 237 237 236 231 241 246 247 250 250 241 239 240 244 251 258 262 270 272 286 294
190 184 163 195 183 211 53 230 242 232 257 256 259 264 218 203 203 204 205 205 206 211 216 222 229 231 233 235 237 237 235 228 221 230 238 238 239 237 232 228 239 249 255 254 263 257 276 271 279
203 191 189 95 24 65 203 274 294 231 260 248 227 198 193 192 192 196 199 204 208 215 223 228 235 238 236 234 233 232 229 220 216 222 223 228 228 230 234 243 247 239 237 250 251 259 258 268 275
180 157 173 340 147 234 249 272 229 251 234 212 211 199 194 193 196 200 206 211 214 218 220 222 220 222 220 217 218 220 219 216 210 210 218 213 219 227 217 216 223 228 227 237 250 259 269 279 287
161 179 154 136 161 194 224 255 207 218 221 212 209 199 195 195 197 199 202 202 205 205 203 204 202 203 200 195 197 199 199 201 201 212 215 224 230 191 192 194 199 203 209 214 229 259 280 295 303
273 196 192 185 213 209 155 256 249 249 265 217 197 204 196 196 195 197 199 197 195 196 196 199 197 196 193 191 189 192 193 195 202 205 208 202 176 176 180 183 181 187 204 231 261 285 300 309 315
Wind_Speed_850mb
6 7 13 5 8 9 0 4 3 1 4 9 21 21 17 11 4 5 33 24 34 30 28 24 20 21 20 19 19 18 19 20 23 23 25 23 19 17 20 21 25 27 29 26 25 24 24 24 21
6 7 7 5 8 5 8 6 10 5 23 33 28 22 13 5 5 25 41 28 33 31 31 25 23 22 20 22 20 19 20 24 29 26 28 31 29 30 31 31 34 35 33 30 28 26 29 28 24
5 9 3 8 6 5 8 6 10 14 30 3 12 18 8 8 16 44 25 32 34 29 27 25 24 24 23 22 20 20 24 26 30 23 23 29 31 30 32 32 32 32 32 34 29 27 29 27 21
1 3 9 8 3 6 8 12 14 19 11 7 32 15 12 5 33 24 30 34 37 31 25 23 22 25 25 22 21 20 21 24 27 25 23 25 25 23 26 26 25 27 29 26 24 22 18 17 22
6 3 7 4 5 7 5 18 19 8 9 18 6 9 10 28 13 26 31 37 34 33 26 25 24 28 26 22 18 19 19 20 19 18 19 23 22 20 23 24 24 23 21 19 18 18 14 14 17
6 4 7 4 5 7 2 22 11 7 13 18 19 17 13 24 19 33 35 36 32 32 29 26 24 26 26 23 18 18 17 18 18 17 17 19 20 19 21 24 23 21 19 19 20 20 17 15 15
6 6 8 7 4 3 5 14 7 14 17 8 35 9 15 31 27 38 39 36 35 32 31 27 24 25 24 22 19 17 18 19 19 17 15 15 19 21 20 23 20 19 20 20 18 17 12 11 12
8 7 7 6 6 6 8 19 11 21 2 34 22 13 14 45 41 44 40 39 34 32 31 29 25 25 24 21 19 16 17 17 17 15 15 15 15 17 20 20 18 17 17 17 18 16 11 4 5
12 7 3 10 8 7 14 8 13 9 25 13 19 13 13 52 53 50 46 45 39 37 35 31 28 26 25 23 20 18 16 16 14 13 14 13 12 12 13 15 15 14 13 14 12 10 7 2 5
12 5 8 5 7 6 13 13 23 13 18 9 20 20 35 59 64 60 58 55 48 44 42 38 34 30 27 25 22 19 17 15 12 12 11 10 9 8 8 9 10 10 7 8 7 6 3 2 3
15 8 8 18 24 19 8 15 21 19 7 22 35 37 57 66 67 63 58 53 48 43 44 41 38 34 30 28 25 23 20 17 14 12 10 8 6 5 5 4 5 5 4 4 4 3 4 5 5
11 14 10 37 16 12 9 19 14 33 15 30 34 38 62 71 72 69 62 55 49 47 44 42 39 37 34 31 27 25 22 19 15 12 9 7 4 3 2 2 3 3 3 3 2 3 6 6 6
11 9 18 16 32 24 12 18 13 36 13 18 40 54 63 69 67 64 56 51 48 49 45 44 43 40 37 35 32 30 26 22 19 16 13 10 7 5 3 1 1 0 1 2 2 5 7 6 5
19 13 10 25 26 19 10 9 14 24 27 26 46 57 63 65 68 69 64 58 56 49 47 43 44 41 40 37 34 32 29 26 25 22 18 16 14 11 8 6 5 4 5 5 5 6 7 6 6
6 4 13 12 8 11 8 8 13 20 31 41 53 59 60 62 69 70 62 62 58 52 48 46 43 40 38 34 36 35 33 32 29 27 25 23 20 17 15 13 11 10 10 10 10 10 10 9 8
8 5 16 4 11 12 17 15 22 27 38 47 58 61 60 61 59 65 64 60 58 54 54 48 46 43 41 39 36 34 35 35 31 28 29 28 26 24 22 20 17 17 16 16 16 16 16 15 16
8 11 23 12 14 4 8 11 17 35 45 49 61 63 62 60 59 60 63 62 59 55 54 54 50 48 43 41 42 43 39 35 35 30 29 29 28 29 27 25 22 22 21 21 22 23 24 24 25
12 21 9 30 11 8 8 15 11 34 48 57 63 65 65 65 61 55 57 58 60 55 54 53 49 48 50 48 46 51 43 47 42 40 38 34 31 29 28 29 26 26 26 24 25 26 29 32 33
14 18 22 19 21 11 16 15 28 17 37 36 55 65 66 67 58 54 53 55 55 56 57 58 64 56 59 60 57 57 58 51 50 45 41 39 37 35 32 30 26 25 28 26 28 30 31 33 37
9 15 34 5 6 13 8 24 20 13 23 61 69 66 68 68 66 57 61 62 63 60 59 63 61 61 62 66 57 55 50 46 49 51 48 47 44 42 41 38 34 31 31 31 32 34 38 40 41
12 13 7 10 6 3 5 13 14 13 35 37 55 62 66 66 65 57 65 66 63 71 71 66 61 57 58 60 56 53 47 46 40 46 49 49 49 45 45 42 39 38 39 38 38 38 46 40 42
23 7 8 8 6 7 10 16 11 14 18 23 60 59 69 68 63 52 53 64 65 65 66 72 68 62 56 58 56 53 51 47 40 38 36 42 42 43 42 42 40 41 41 45 42 39 42 41 50
11 15 11 2 6 4 3 2 20 3 21 25 44 75 74 74 60 55 59 57 65 63 63 66 69 70 65 61 62 57 57 46 34 31 23 24 29 35 38 41 40 36 37 37 35 35 39 38 41
16 10 11 7 5 8 17 17 11 15 15 13 50 76 97 92 72 64 62 61 61 64 63 62 66 68 69 69 69 67 65 52 42 37 34 30 29 30 35 37 36 37 33 29 28 27 30 30 32
15 20 6 6 7 22 8 10 28 9 15 11 17 53 85 77 69 64 64 64 65 68 65 62 63 64 65 66 67 66 62 55 45 40 39 32 32 31 33 32 32 31 28 28 28 28 28 24 24
23 18 10 17 12 7 4 14 18 15 13 29 28 30 46 62 58 59 60 58 59 60 61 61 63 64 65 66 67 63 57 51 52 50 41 36 35 30 29 24 26 28 29 28 27 21 26 29 29
12 18 12 12 7 6 9 13 19 12 16 11 23 31 49 55 57 55 54 54 54 56 57 58 59 60 61 62 65 64 57 52 54 55 48 38 35 34 32 31 29 22 21 25 26 27 27 27 30
14 19 9 2 11 9 10 9 11 10 20 16 18 49 59 58 57 54 49 48 49 50 50 47 44 42 43 44 45 46 47 48 53 53 46 40 35 31 25 26 28 28 25 17 15 16 16 18 20
5 8 2 6 8 12 6 16 17 25 31 30 37 54 70 65 60 55 50 45 43 42 40 40 40 39 40 40 39 40 44 48 54 53 44 35 31 26 24 22 19 16 15 12 8 9 11 15 19
3 15 25 11 16 3 6 13 4 15 14 23 33 52 58 59 53 49 47 48 47 43 41 40 41 41 40 39 39 40 43 48 52 49 42 33 32 29 24 21 18 14 9 8 7 10 14 18 23
Wind_Direction_850mb
264 306 330 329 48 61 284 203 105 169 47 73 100 115 125 70 129 190 141 148 157 156 150 149 140 136 123 105 95 92 102 114 103 95 107 125 141 148 145 120 116 101 100 103 106 100 90 84 79
259 328 341 63 82 48 285 263 156 219 135 111 83 89 62 83 101 139 145 141 160 154 149 146 138 134 121 107 96 99 108 107 105 95 97 102 106 107 102 99 99 99 98 101 101 99 94 86 78
260 355 26 88 103 166 217 232 165 132 157 110 100 72 79 114 133 140 149 147 161 155 152 150 147 140 130 122 104 93 98 100 103 113 96 101 108 102 102 98 98 101 99 103 106 104 96 92 79
314 3 57 83 213 254 208 193 177 141 132 94 119 71 82 82 137 141 145 155 161 159 156 153 149 145 138 127 104 100 101 110 117 116 99 96 100 99 98 104 101 100 105 104 112 111 105 100 85
35 32 61 75 289 268 247 185 170 125 110 134 128 136 95 147 151 152 150 159 168 163 156 158 157 149 142 138 120 108 105 111 116 110 93 87 91 96 93 100 101 99 100 109 114 123 120 106 89
16 58 71 209 253 298 155 172 174 141 148 138 112 116 130 171 170 156 154 160 171 166 158 158 155 154 152 147 134 123 115 110 113 109 93 86 89 92 94 98 96 96 100 107 111 126 123 102 76
107 76 193 191 227 74 172 206 205 166 145 156 139 104 146 176 185 161 159 159 167 170 160 155 159 162 163 159 151 135 116 108 102 98 95 87 77 80 87 94 88 89 89 91 97 115 108 91 65
53 80 134 205 194 211 186 165 208 166 180 149 157 163 177 177 176 165 165 170 170 174 169 163 165 168 172 163 157 141 124 112 107 106 101 91 85 83 83 79 80 87 89 97 107 117 125 96 50
87 72 265 210 158 236 169 147 172 170 153 183 186 198 187 167 171 171 173 178 182 183 180 176 173 176 175 173 165 156 143 132 122 115 109 105 98 93 92 84 84 99 101 106 109 113 119 99 335
107 101 223 234 224 251 182 176 168 162 156 193 180 181 170 170 175 180 182 184 188 188 187 183 181 181 181 180 176 168 162 154 143 126 114 109 105 100 92 84 77 82 99 111 114 111 97 19 345
144 182 32 300 269 264 222 207 181 157 229 202 185 171 175 177 183 189 191 193 192 190 193 191 189 187 187 184 183 182 181 177 168 155 142 131 115 97 87 92 80 71 92 100 96 83 27 355 345
126 220 187 270 294 285 212 203 201 185 206 217 198 194 180 185 189 195 195 197 196 196 197 199 198 196 192 192 193 193 194 194 190 187 179 169 156 134 99 79 82 78 55 45 42 8 354 347 333
148 208 228 288 293 279 242 205 198 211 223 203 191 181 186 192 197 200 202 201 201 204 201 205 206 207 204 202 201 202 203 205 209 210 209 208 208 213 210 218 250 205 316 347 345 330 332 336 333
169 145 259 291 298 284 237 224 186 229 217 190 187 189 192 195 203 203 204 206 208 207 206 210 214 213 214 214 212 211 213 213 220 222 222 225 230 233 239 251 266 277 282 292 297 298 313 311 316
143 46 334 245 282 256 187 282 221 223 204 191 190 196 198 203 205 210 208 209 212 213 213 216 218 217 218 218 221 219 219 221 226 232 234 234 235 240 245 250 259 266 268 270 277 281 297 294 299
98 47 239 350 194 232 161 249 248 214 198 192 194 202 206 210 212 214 215 215 217 220 221 223 227 227 230 231 235 233 227 225 231 229 235 240 243 243 244 249 253 257 265 269 272 273 276 280 282
189 220 227 292 214 244 177 231 248 211 203 199 199 206 212 218 218 217 218 220 220 224 224 226 230 234 235 236 244 245 248 237 234 235 240 246 248 252 254 252 252 256 260 267 273 274 274 277 280
180 215 221 211 220 206 208 249 273 210 206 211 207 210 214 220 221 217 218 219 222 224 228 230 230 233 236 238 243 244 244 234 236 240 240 243 248 252 261 252 253 258 261 266 273 281 281 283 288
150 190 217 211 208 179 220 231 245 234 218 224 217 214 216 222 228 224 223 222 219 222 225 227 231 232 235 233 236 239 236 236 237 238 242 245 249 252 256 259 269 277 279 282 280 280 284 288 291
212 191 202 251 147 169 233 247 253 206 221 217 217 218 219 225 231 227 229 226 226 223 225 229 232 232 234 235 240 241 244 252 242 241 245 249 250 253 256 258 262 267 272 273 279 284 287 292 290
229 208 161 192 124 133 131 277 251 236 242 237 232 231 229 229 232 234 232 228 227 229 228 229 230 231 230 234 238 239 241 247 242 240 239 244 250 252 254 260 263 266 268 272 279 283 282 278 287
232 173 158 113 121 219 171 254 246 233 235 224 235 229 234 234 234 228 229 223 225 229 226 227 230 231 230 233 237 238 240 243 250 247 245 246 246 251 255 258 261 265 268 270 275 275 278 285 285
208 171 157 110 234 197 206 233 252 197 236 234 235 233 232 228 229 225 226 223 225 226 226 223 225 229 229 232 236 239 240 244 246 242 253 252 249 245 249 252 255 261 268 270 275 276 278 284 284
146 81 70 94 128 267 213 191 247 206 208 223 231 233 232 231 229 224 223 222 219 221 220 223 224 228 231 232 235 236 240 239 235 245 249 254 257 251 245 246 248 252 255 263 266 275 275 275 278
155 141 183 201 165 234 170 184 237 225 234 230 252 244 235 226 220 217 217 215 213 216 216 221 227 230 232 234 236 237 237 236 231 241 246 247 250 250 241 239 240 244 251 258 262 270 272 286 294
190 184 163 195 183 211 53 230 242 232 257 256 259 264 218 203 203 204 205 205 206 211 216 222 229 231 233 235 237 237 235 228 221 230 238 238 239 237 232 228 239 249 255 254 263 257 276 271 279
203 191 189 95 24 65 203 274 294 231 260 248 227 198 193 192 192 196 199 204 208 215 223 228 235 238 236 234 233 232 229 220 216 222 223 228 228 230 234 243 247 239 237 250 251 259 258 268 275
180 157 173 340 147 234 249 272 229 251 234 212 211 199 194 193 196 200 206 211 214 218 220 222 220 222 220 217 218 220 219 216 210 210 218 213 219 227 217 216 223 228 227 237 250 259 269 279 287
161 179 154 136 161 194 224 255 207 218 221 212 209 199 195 195 197 199 202 202 205 205 203 204 202 203 200 195 197 199 199 201 201 212 215 224 230 191 192 194 199 203 209 214 229 259 280 295 303
273 196 192 185 213 209 155 256 249 249 265 217 197 204 196 196 195 197 199 197 195 196 196 199 197 196 193 191 189 192 193 195 202 205 208 202 176 176 180 183 181 187 204 231 261 285 300 309 315